Date String (YYYY-MM-DD hh:mm:ss) UTC,Instrument flags,Ambient pressure (hPa),Sample flow (lpm),Bypass flow (lpm),Sample temperature (°C),Ambient temperature (°C),ASC tube jacket temperature (°C),LED temperature (°C),Box temperature (°C),Sample RH (%),Span deviation,Mass concentration (μg/m³),Mass concentration (μg/m³),Mass concentration (μg/m³)
DateTimeUTC,F1_M11,P_M11,Q1_M11,Q2_M11,T1_M11,T2_M11,T3_M11,T4_M11,T5_M11,U1_M11,ZSPAN_M11,X0_M11,X2_M11,X1_M11
2023-02-02 18:00:00,,0832.4,4.99,0.00,24.3,23.2,00.0,32.9,26.1,09.3,0000.0,0005.74,0003.50,0003.23
2023-02-02 18:01:00,,0832.3,4.98,0.00,24.3,23.3,00.0,33.0,26.1,09.4,0000.0,0006.42,0003.53,0003.28
2023-02-02 18:02:00,,0832.4,5.00,0.00,24.3,23.3,00.0,33.0,26.2,09.7,0000.0,0007.31,0003.65,0003.34
2023-02-02 18:03:00,,0832.4,5.00,0.00,24.3,23.3,00.0,33.0,26.2,09.6,0000.0,0008.05,0003.74,0003.40
2023-02-02 18:04:00,,0832.3,4.99,0.00,24.3,23.3,00.0,33.0,26.2,09.5,0000.0,0008.22,0003.82,0003.45
2023-02-02 18:05:00,,0832.4,5.01,0.00,24.3,23.3,00.0,33.0,26.2,09.3,0000.0,0008.38,0003.89,0003.49
2023-02-02 18:06:00,,0832.4,5.02,0.00,24.4,23.3,00.0,33.1,26.2,09.4,0000.0,0008.54,0003.96,0003.53
2023-02-02 18:07:00,,0832.4,5.00,0.00,24.4,23.4,00.0,33.1,26.2,08.9,0000.0,0008.86,0004.10,0003.61
2023-02-02 18:08:00,,0832.3,4.98,0.00,24.4,23.4,00.0,33.1,26.3,08.9,0000.0,0009.47,0004.27,0003.71
2023-02-02 18:09:00,,0832.3,5.00,0.00,24.4,23.4,00.0,33.1,26.3,08.9,0000.0,0010.01,0004.42,0003.82
2023-02-02 18:10:00,,0832.3,5.02,0.00,24.4,23.4,00.0,33.1,26.3,09.1,0000.0,0010.28,0004.52,0003.89
2023-02-02 18:11:00,,0832.3,5.01,0.00,24.5,23.4,00.0,33.1,26.3,09.3,0000.0,0010.72,0004.63,0003.95
2023-02-02 18:12:00,,0832.2,4.99,0.00,24.5,23.5,00.0,33.2,26.4,09.3,0000.0,0010.68,0004.73,0004.00
2023-02-02 18:13:00,,0832.2,4.99,0.00,24.5,23.5,00.0,33.2,26.4,09.3,0000.0,0010.62,0004.77,0004.04
2023-02-02 18:14:00,,0832.3,4.99,0.00,24.5,23.5,00.0,33.2,26.4,09.2,0000.0,0010.53,0004.79,0004.08
2023-02-02 18:15:00,,0832.3,5.01,0.00,24.5,23.5,00.0,33.2,26.4,09.1,0000.0,0010.70,0004.87,0004.14
2023-02-02 18:16:00,,0832.4,4.96,0.00,24.6,23.5,00.0,33.2,26.4,09.2,0000.0,0010.97,0004.94,0004.20
2023-02-02 18:17:00,,0832.4,4.99,0.00,24.6,23.6,00.0,33.3,26.5,09.3,0000.0,0011.18,0005.02,0004.26
2023-02-02 18:18:00,,0832.4,4.98,0.00,24.6,23.6,00.0,33.3,26.5,09.3,0000.0,0011.06,0005.04,0004.31
2023-02-02 18:19:00,,0832.3,4.98,0.00,24.6,23.6,00.0,33.3,26.5,09.3,0000.0,0010.66,0005.02,0004.33
2023-02-02 18:20:00,,0832.4,4.98,0.00,24.6,23.6,00.0,33.3,26.5,09.2,0000.0,0010.20,0005.04,0004.36
2023-02-02 18:21:00,,0832.3,5.01,0.00,24.7,23.6,00.0,33.3,26.5,09.1,0000.0,0010.30,0005.13,0004.42
2023-02-02 18:22:00,,0832.3,4.96,0.00,24.7,23.6,00.0,33.3,26.5,09.0,0000.0,0010.36,0005.23,0004.51
2023-02-02 18:23:00,,0832.3,4.98,0.00,24.7,23.6,00.0,33.4,26.5,08.9,0000.0,0010.66,0005.29,0004.58
2023-02-02 18:24:00,,0832.4,5.00,0.00,24.7,23.7,00.0,33.4,26.6,09.0,0000.0,0010.73,0005.37,0004.66
2023-02-02 18:25:00,,0832.4,5.01,0.00,24.7,23.7,00.0,33.4,26.6,09.0,0000.0,0010.39,0005.48,0004.76
2023-02-02 18:26:00,,0832.4,5.01,0.00,24.7,23.7,00.0,33.4,26.6,10.0,0000.0,0010.31,0005.59,0004.88
2023-02-02 18:27:00,,0832.4,5.00,0.00,24.7,23.7,00.0,33.4,26.6,10.2,0000.0,0010.17,0005.75,0005.08
2023-02-02 18:28:00,,0832.4,4.99,0.00,24.8,23.7,00.0,33.5,26.6,10.1,0000.0,0010.05,0005.89,0005.26
2023-02-02 18:29:00,,0832.4,4.99,0.00,24.8,23.7,00.0,33.5,26.6,10.0,0000.0,0010.36,0006.02,0005.42
2023-02-02 18:30:00,,0832.4,4.99,0.00,24.8,23.7,00.0,33.5,26.6,10.1,0000.0,0010.71,0006.13,0005.56
2023-02-02 18:31:00,,0832.4,5.01,0.00,24.8,23.7,00.0,33.5,26.6,09.9,0000.0,0010.83,0006.30,0005.75
2023-02-02 18:32:00,,0832.4,5.01,0.00,24.8,23.7,00.0,33.5,26.6,09.7,0000.0,0010.94,0006.53,0006.02
2023-02-02 18:33:00,,0832.4,5.00,0.00,24.8,23.8,00.0,33.5,26.7,09.7,0000.0,0011.10,0006.78,0006.28
2023-02-02 18:34:00,,0832.3,4.98,0.00,24.9,23.8,00.0,33.6,26.7,09.7,0000.0,0010.65,0007.01,0006.55
2023-02-02 18:35:00,,0832.4,5.01,0.00,24.9,23.8,00.0,33.6,26.7,10.0,0000.0,0010.87,0007.25,0006.81
2023-02-02 18:36:00,,0832.4,5.04,0.00,24.9,23.8,00.0,33.6,26.7,09.8,0000.0,0011.03,0007.49,0007.06
2023-02-02 18:37:00,,0832.3,5.03,0.00,24.9,23.8,00.0,33.6,26.7,09.8,0000.0,0011.16,0007.71,0007.30
2023-02-02 18:38:00,,0832.3,4.98,0.00,24.9,23.8,00.0,33.6,26.7,09.7,0000.0,0011.44,0007.88,0007.46
2023-02-02 18:39:00,,0832.3,4.99,0.00,24.9,23.8,00.0,33.6,26.7,09.9,0000.0,0011.78,0008.09,0007.66
2023-02-02 18:40:00,,0832.3,5.01,0.00,24.9,23.8,00.0,33.6,26.8,09.8,0000.0,0011.82,0008.32,0007.88
2023-02-02 18:41:00,,0832.3,5.02,0.00,24.9,23.9,00.0,33.6,26.8,09.7,0000.0,0011.69,0008.54,0008.11
2023-02-02 18:42:00,,0832.3,4.99,0.00,25.0,23.9,00.0,33.7,26.8,10.1,0000.0,0011.86,0008.72,0008.29
2023-02-02 18:43:00,,0832.4,5.01,0.00,25.0,23.9,00.0,33.7,26.8,10.1,0000.0,0011.98,0008.77,0008.35
2023-02-02 18:44:00,,0832.4,4.97,0.00,25.0,23.9,00.0,33.7,26.8,10.0,0000.0,0012.04,0008.80,0008.40
2023-02-02 18:45:00,,0832.4,5.00,0.00,25.0,24.0,00.0,33.7,26.8,09.8,0000.0,0012.22,0008.86,0008.43
2023-02-02 18:46:00,,0832.4,4.99,0.00,25.0,24.0,00.0,33.7,26.9,09.9,0000.0,0012.21,0008.87,0008.43
2023-02-02 18:47:00,,0832.4,5.00,0.00,25.0,24.0,00.0,33.7,26.9,09.7,0000.0,0012.07,0008.80,0008.40
2023-02-02 18:48:00,,0832.4,4.99,0.00,25.1,24.0,00.0,33.8,26.9,09.3,0000.0,0011.92,0008.72,0008.34
2023-02-02 18:49:00,,0832.3,4.99,0.00,25.1,24.0,00.0,33.8,26.9,09.7,0000.0,0011.61,0008.61,0008.25
2023-02-02 18:50:00,,0832.3,5.01,0.00,25.1,24.0,00.0,33.8,26.9,09.5,0000.0,0011.32,0008.47,0008.12
2023-02-02 18:51:00,,0832.3,5.04,0.00,25.1,24.0,00.0,33.8,26.9,09.4,0000.0,0011.10,0008.34,0008.00
2023-02-02 18:52:00,,0832.3,5.00,0.00,25.1,24.1,00.0,33.8,27.0,09.3,0000.0,0011.05,0008.25,0007.90
2023-02-02 18:53:00,,0832.4,5.02,0.00,25.1,24.1,00.0,33.8,27.0,09.5,0000.0,0010.99,0008.13,0007.78
2023-02-02 18:54:00,,0832.3,4.97,0.00,25.2,24.1,00.0,33.8,27.0,09.4,0000.0,0010.91,0008.05,0007.68
2023-02-02 18:55:00,,0832.3,5.01,0.00,25.2,24.1,00.0,33.9,27.0,09.5,0000.0,0010.75,0007.96,0007.59
2023-02-02 18:56:00,,0832.3,5.01,0.00,25.2,24.1,00.0,33.9,27.0,09.3,0000.0,0010.50,0007.85,0007.53
2023-02-02 18:57:00,,0832.3,4.98,0.00,25.2,24.2,00.0,33.9,27.1,09.3,0000.0,0010.45,0007.80,0007.48
2023-02-02 18:58:00,,0832.3,4.98,0.00,25.2,24.2,00.0,33.9,27.1,09.4,0000.0,0010.49,0007.79,0007.46
2023-02-02 18:59:00,,0832.3,5.00,0.00,25.2,24.2,00.0,33.9,27.1,09.2,0000.0,0010.50,0007.79,0007.45
